Simultaneous Nadir Overpasses (SNOs) Predictions

Prediction of SNOs over PacNW region [( 10.00, 139.50) to ( 22.70, 165.60)] between AQUA and NPP Satellites:

Table of predicted SNOs over PacNW region for the next 30.0 days since TLE Epoch: 4/8/2016
Index Date (AQUA) Time (AQUA) AQUA Lat,Lon Date (NPP) Time (NPP) NPP Lat,Lon Distance(km) Time Diff (sec)
1 04/11/2016 16:00:19 22.63, 147.30 04/11/2016 16:02:44 23.24, 144.63 282.34 145
2 04/19/2016 15:10:56 22.59, 159.63 04/19/2016 15:12:03 23.14, 157.27 250.15 67
3 04/22/2016 03:32:46 22.64, 147.32 04/22/2016 03:29:17 26.12, 144.93 456.58 209
4 04/27/2016 16:00:23 22.58, 147.26 04/27/2016 16:02:49 23.19, 144.57 283.83 146
5 05/05/2016 15:10:54 22.60, 159.62 05/05/2016 15:12:07 23.11, 157.22 253.24 73
